Location: Kelowna
(49.8880°N, 119.4960°W)
Time: 15:44:27
(UTC-07:00)

TIGRISAT - Pass Details

Date: 25 April 2024
Orbit: 594 x 672 km, 97.7° (Epoch: 27 May)

Event Time Altitude Azimuth Distance (km) Brightness Sun altitude
Rises 05:02:39 0° 174° (S) 2,917 ? -6.9°
Reaches altitude 10° 05:04:53 10° 178° (S) 2,001 ? -6.5°
Maximum altitude 05:09:11 61° 259° (W) 707 ? -5.9°
Drops below altitude 10° 05:13:26 10° 340° (NNW) 1,973 ? -5.3°
Sets 05:15:38 0° 344° (NNW) 2,872 ? -5.0°
